Regional Weather Roundup
Issued by NWS Little Rock, AR

Home | Current Version | Previous Version | Text Only | Print | Product List | Glossary On
Versions: 1 2 3 4 5 6 7 8 9 10 11 12 13 14 15 16 17 18 19 20 21 22 23 24 25 26 27
000
ASUS44 KLZK 300205
RWRLZK

WEATHER ROUNDUP FOR ARKANSAS
NATIONAL WEATHER SERVICE LITTLE ROCK AR
900 PM CDT FRI APR 29 2016

NOTE: "FAIR" INDICATES FEW OR NO CLOUDS BELOW 12,000 FEET WITH NO
SIGNIFICANT WEATHER AND/OR OBSTRUCTIONS TO VISIBILITY.

ARZ001-003-010-029-300300-
NORTHWEST ARKANSAS

CITY           SKY/WX    TMP DP  RH WIND       PRES   REMARKS
FAYETTEVILLE   RAIN      65  64  97 SE10      29.73R
FORT SMITH     RAIN      66  63  90 E14       29.67F FOG
HARRISON       LGT RAIN  60  60 100 SE6       29.80R FOG
BENTONVILLE    CLOUDY    64  61  88 SE6       29.75R
ROGERS         RAIN      62  61  96 E7        29.76
SILOAM SPGS    CLOUDY    64  55  72 SE13G21   29.72S
HIGHFILL       RAIN      66  64  93 SE15      29.72S
SPRINGDALE     LGT RAIN  64  64 100 S12       29.76R FOG
$$

ARZ004-005-016-300300-
NORTH CENTRAL ARKANSAS

CITY           SKY/WX    TMP DP  RH WIND       PRES   REMARKS
BATESVILLE     CLOUDY    64  61  88 E5        29.82F
FLIPPIN        CLOUDY   N/A N/A N/A E7        29.78R
MTN HOME       LGT RAIN  61  60  97 SE8       29.81R
$$

ARZ040-041-300300-
WEST CENTRAL ARKANSAS

CITY           SKY/WX    TMP DP  RH WIND       PRES   REMARKS
MENA           CLOUDY    68  68 100 NE5       29.74R
MOUNT IDA      HVY RAIN  67  65  93 SE6       29.74R FOG
$$

ARZ009-017-025-026-028-300300-
NORTHEAST ARKANSAS

CITY           SKY/WX    TMP DP  RH WIND       PRES   REMARKS
CORNING          N/A     63  63 100 NE10      29.86F
JONESBORO      CLOUDY    64  62  93 E6        29.83F
NEWPORT        CLOUDY    65  65 100 E6        29.83F
WALNUT RIDGE   CLOUDY    64  59  82 E7        29.84F
BLYTHEVILLE    CLOUDY    64  59  83 SE7       29.86S
$$

ARZ022-023-033-042-044-300300-
CENTRAL ARKANSAS

CITY           SKY/WX    TMP DP  RH WIND       PRES   REMARKS
LITTLE ROCK    RAIN      68  65  90 NE3       29.80R FOG
N LITTLE ROCK    N/A     65  64  95 CALM      29.79F
JACKSONVILLE   LGT RAIN  67  67  99 W3        29.81R FOG
SEARCY         RAIN      65  65 100 CALM      29.84R
HOT SPRINGS    TSTM      67  65  93 E8        29.78F FOG
RUSSELLVILLE   RAIN      66  65  96 VRB3      29.77S FOG
$$

ARZ036-300300-
EAST ARKANSAS

CITY           SKY/WX    TMP DP  RH WIND       PRES   REMARKS
WEST MEMPHIS   CLOUDY    64  63  96 SE12      29.84R
$$

ARZ050-053-066-070-073-300300-
SOUTHWEST ARKANSAS

CITY           SKY/WX    TMP DP  RH WIND       PRES   REMARKS
ARKADELPHIA      N/A     67  67 100 CALM      29.77F FOG
CAMDEN         LGT RAIN  66  64  94 CALM      29.77R
TEXARKANA      TSTM      67  65  93 E13G23    29.65F FOG
EL DORADO      CLOUDY    68  65  90 SE7       29.79R THUNDER
DE QUEEN       TSTM      68  67  96 E10G22    29.64S FOG
$$

ARZ056-057-069-300300-
SOUTHEAST ARKANSAS

CITY           SKY/WX    TMP DP  RH WIND       PRES   REMARKS
PINE BLUFF     LGT RAIN  67  65  93 CALM      29.80F
STUTTGART      CLOUDY    66  63  88 S6        29.83R
MONTICELLO     CLOUDY    68  66  93 E3        29.79R

$$






USA.gov is the U.S. government's official web portal to all federal, state and local government web resources and services.